Regional Weather Roundup
Issued by NWS Grand Forks, ND

Home | Current Version | Previous Version | Graphics & Text | Print | Product List | Glossary On
Versions: 1 2 3 4 5 6 7 8 9 10 11 12 13 14 15 16 17 18 19 20 21 22 23 24 25 26 27 28 29 30 31 32 33 34 35 36 37 38 39 40 41 42 43 44 45 46 47 48 49 50
000
ASUS43 KFGF 211131
RWRFGF
PRAIRIE TO PINES  WEATHER ROUNDUP
NATIONAL WEATHER SERVICE EASTERN NORTH DAKOTA/GRAND FORKS ND
600 AM CDT THU SEP 21 2017

 **SATELLITE DATA USED TO AUGMENT SKY COVER AT AUTOMATED STATIONS**
 *****  WEATHER ACROSS EASTERN NORTH DAKOTA  *****

CITY           SKY/WX    TMP DP  RH WIND       PRES   REMARKS
GRAND FORKS    FAIR      53  47  79 S12       29.81S
GRAND FRKS AFB MOCLDY    55  44  68 S14       29.80S
DEVILS LAKE    FAIR      55  44  66 SE8       29.74S
FARGO          FAIR      57  48  72 SE13G18   29.85R
WAHPETON ARPT  FAIR      52  45  76 S10       29.89S
$$

 ***** WEATHER ACROSS CENTRAL AND WESTERN NORTH DAKOTA  *****

CITY           SKY/WX    TMP DP  RH WIND       PRES   REMARKS
BISMARCK       FAIR      57  45  64 SE12      29.68F
MINOT          FAIR      54  40  59 E3        29.63F
JAMESTOWN      FAIR      54  47  77 S14       29.77S
MINOT AFB      FAIR      52  41  65 CALM      29.63S
GARRISON         N/A     54  43  66 E6        29.65F
WILLISTON      MOCLDY    48  42  80 NE3       29.64F
DICKINSON      CLOUDY    56  40  55 S7        29.63S
HETTINGER      CLOUDY    59  38  45 SE10      29.68S
$$

 *****  OTHER AIRPORT OBSERVATIONS IN OUR AREA  *****

CITY           SKY/WX    TMP DP  RH WIND       PRES   REMARKS
WALHALLA       FAIR     N/A N/A N/A SE14      29.74F
GRAFTON AIRPOR NOT AVBL
VALLEY CITY AR NOT AVBL
CANDO          FAIR      54  48  82 S10       29.73S
CAVALIER APRT  FAIR      50  45  81 S13G18    29.77S
GWINNER        SUNNY     52  48  87 CALM      29.83F
SHEYENNE NWR     N/A     56  48  74 S14       29.95S
ROLLA          FAIR      46  41  81 S7        29.71S
 ***** THE ABOVE OBSERVATIONS ARE NON NWS ARE NOT QUALITY
       CONTROLLED AND MAY MIS-REPORT RAIN FOR SNOW...
$$

  *****  WEATHER ACROSS NORTHERN MINNESOTA  *****

CITY           SKY/WX    TMP DP  RH WIND       PRES   REMARKS
FLAG ISLAND    FAIR      57  50  77 S17       29.86R
WARROAD        FAIR      54  46  76 S7G16     29.89R
ROSEAU         FAIR      54  45  71 S13G18    29.87R
HALLOCK        CLOUDY    54  46  76 S13       29.80S
THF RVR FALLS  FAIR      55  44  66 SE14      29.87S
BAUDETTE       FAIR      47  43  86 S8        29.90F
WASKISH        FAIR      52  46  82 CALM      29.92S
CROOKSTON      FAIR      55  46  71 S12       29.83F
STEPHEN NDAWN    N/A     55  45  67 S9          N/A
GREENBUSH NDAW   N/A     52  43  71 S8          N/A
$$
  *****  WEATHER ACROSS CENTRAL AND WEST MINNESOTA  *****

CITY           SKY/WX    TMP DP  RH WIND       PRES   REMARKS
FOSSTON        FAIR      54  45  71 SE8       29.89F
BEMIDJI        FAIR      45  41  86 SE6       29.93S
PARK RAPIDS    FAIR      50  44  80 SE9       29.94F
ELBOW LAKE     FAIR      54  47  78 E8        29.90F
WADENA         FAIR      48  45  87 SE7       29.95S
DETROIT LAKES  FAIR      54  46  76 SE14      29.90F
MOORHEAD       FAIR      55  48  76 S12       29.86F
FERGUS FALLS   FAIR      57  46  67 SE10      29.89F
MORRIS MN      FAIR      52  46  82 S8        29.91R
STAPLES        NOT AVBL
$$
  *****  WEATHER ELSEWHERE ACROSS MINNESOTA  *****

CITY           SKY/WX    TMP DP  RH WIND       PRES   REMARKS
DULUTH         FAIR      44  42  93 CALM      30.01R
INTRNTL FALLS  FAIR      43  40  89 CALM      29.95S
ELY            FAIR      36  36 100 CALM      30.02S
CLOQUET        FAIR      39  37  93 CALM      30.01R
WHEATON        FAIR      52  46  82 SE10      29.91F
BRAINERD       FAIR      48  44  86 SE5       29.99R
HIBBING        FAIR      35  35 100 NW3       30.01S FOG
ALEXANDRIA     FAIR      53  46  77 SE12      29.95F
SAINT CLOUD    FAIR      43  43 100 E3        29.99S
MINNEAPOLIS    FAIR      56  51  84 CALM      29.99S
$$

  *****  WEATHER ACROSS SOUTH DAKOTA  *****

CITY           SKY/WX    TMP DP  RH WIND       PRES   REMARKS
SIOUX FALLS    FAIR      55  49  80 E10       29.90F
BROOKINGS      FAIR      52  45  77 SE12      29.90F
WATERTOWN      FAIR      52  44  74 S10       29.88S
HURON          FAIR      52  47  83 S9        29.85S
SISSETON         N/A     49  46  90 VRB6      29.88S
ABERDEEN       FAIR      50  46  86 S6        29.82F
MITCHELL       FAIR      53  47  79 S8        29.86F
PIERRE         FAIR      56  44  64 SE16      29.75S
MOBRIDGE       FAIR      59  47  64 S14       29.71S
RAPID CITY     CLEAR     57  36  44 SE17      29.66
$$

  *****  SOME WEATHER IN NEARBY STATES *****

CITY           SKY/WX    TMP DP  RH WIND       PRES   REMARKS
GLASGOW MT     FAIR      47  38  71 W5        29.67R
GREAT FALLS MT FAIR      37  28  70 SW9       29.75R
CHEYENNE WY    FAIR      40  30  67 W8        29.81F
SCOTTSBLUFF NE FAIR      51  37  58 E13       29.74F
OMAHA NE       FAIR      69  58  67 E8        29.86R
DES MOINES IA  TSTM      68  65  90 E7        29.91R
DAVENPORT IA   RAIN      73  59  61 S26G45    29.96R
CHICAGO IL     CLOUDY    74  67  78 S6        29.96S
EAU CLAIRE WI  FAIR      49  49 100 CALM      30.01R
LA CROSSE WI   CLEAR     57  57 100 N8        29.99
$$

  *****  SOME NATIONAL WEATHER *****

CITY           SKY/WX    TMP DP  RH WIND       PRES   REMARKS
LA GUARDIA NY  CLOUDY    73  65  75 NW14      29.97R
RALEIGH NC     FAIR      66  65  96 CALM      30.04R
ATLANTA GA     FAIR      70  67  90 NW5       30.07R
NEW ORLEANS LA FAIR      74  74 100 CALM      30.00S
OKLAHOMA CITY  MOCLDY    77  69  76 S14       29.86S
ALBUQUERQUE NM FAIR      62  33  33 SE3       30.03S
SALT LAKE CITY MOCLDY    53  43  68 NW9       29.73R
LOS ANGELES CA CLOUDY    67  63  87 SW5       29.83F
BOISE ID       CLOUDY    47  43  86 CALM      29.77S
SEATTLE WA     CLOUDY    51  48  89 S6        29.86S
$$

*** WEATHER ACROSS MANITOBA...SASKATCHEWAN AND ONTARIO ***
                ***ONTARIO***

CITY           SKY/WX    TMP DP  RH WIND       PRES   REMARKS
GERALDTON      FOG       43  43 100 SE5       30.03S VSB 1/8
THUNDER BAY    PTCLDY    43  43 100 SW6       30.03S
SIOUX LOOKOUT  PTCLDY    50  45  81 S7        29.95S
TORONTO        PTCLDY    63  59  88 NE3       30.11R
BIG TROUT LK   PTCLDY    52  46  82 SW17G23   29.78R
PICKLE LAKE    PTCLDY    46  45  93 S14       29.92
DRYDEN         CLEAR     50  45  81 S10       29.94S
KENORA         PTCLDY    54  45  71 S8        29.88S
$$
                *** MANITOBA***

CITY           SKY/WX    TMP DP  RH WIND       PRES   REMARKS
BRANDON        PTCLDY    41  37  87 NE3       29.67R
DAUPHIN        CLEAR     50  39  66 SW8       29.60S
ISLAND LAKE    PTCLDY    52  43  71 S10       29.66R
PILOT MOUND      N/A     50  41  71 S13         N/A
THE PAS        PTCLDY    39  36  87 S7        29.51R
THOMPSON       PTCLDY    45  43  93 SW8       29.48R
WINNIPEG       CLEAR     52  45  76 S20G28    29.75R
LYNN LAKE      CLOUDY    41  41 100 N6        29.44R FOG
CHURCHILL      FOG       45  45 100 E9        29.52F VSB 1/2
GILLAM         PTCLDY    45  43  93 S9        29.54R
$$
                ***SASKATCHEWAN***

CITY           SKY/WX    TMP DP  RH WIND       PRES   REMARKS
ESTEVAN        CLOUDY    45  37  76 S6        29.65R
KINDERSLEY     CLOUDY    39  37  93 W17       29.60R
LLOYDMINSTER   LGT RAIN  39  37  93 N13G18    29.54R
PRINCE ALBERT  PTCLDY    36  34  93 S3        29.53R
REGINA         PTCLDY    37  32  81 E5        29.61R
YORKTON        PTCLDY    41  34  75 SW7       29.58F
N. BATTLEFORD  MOCLDY    34  32  93 SW5       29.56R
LA RONGE       CLOUDY    41  39  93 NW6       29.49R
SASKATOON      CLEAR     34  32  93 SW9       29.59R
SWIFT CURRENT  CLEAR     34  28  80 W14       29.65R WCI  24
$$
NOTE: THESE ARE AUTOMATED STATIONS WITH LIMITED QUALITY CONTROL
      "FAIR" INDICATES FEW OR NO CLOUDS BELOW 12,000 FEET WITH NO
      SIGNIFICANT WEATHER AND/OR OBSTRUCTIONS TO VISIBILITY.
      SKY/WX - SKY CONDITION AND SIGNIFICANT WEATHER.
      TMP - AIR TEMPERATURE.    DP   - DEWPOINT TEMPERATURE.
      RH  - RELATIVE HUMIDITY.  PRES - PRESSURE.
      HX  - HEAT INDEX.         WCI  - WIND CHILL INDEX.
$




USA.gov is the U.S. government's official web portal to all federal, state and local government web resources and services.